TimeEST,TemperatureF,Dew PointF,Humidity,Sea Level PressureIn,VisibilityMPH,Wind Direction,Wind SpeedMPH,Gust SpeedMPH,PrecipitationIn,Events,Conditions,WindDirDegrees,DateUTC
12:15 AM,28.4,14.0,55,29.83,10.0,WNW,13.8,25.3,N/A,,Clear,300,2014-01-26 05:15:00
12:35 AM,28.6,10.4,47,29.83,10.0,NW,10.4,19.6,N/A,,Clear,310,2014-01-26 05:35:00
12:55 AM,27.5,9.5,47,29.84,10.0,NW,9.2,-,N/A,,Clear,320,2014-01-26 05:55:00
1:15 AM,27.3,8.8,46,29.85,10.0,WNW,9.2,16.1,N/A,,Clear,300,2014-01-26 06:15:00
1:35 AM,26.6,8.1,46,29.85,10.0,WNW,9.2,-,N/A,,Clear,290,2014-01-26 06:35:00
1:55 AM,25.7,8.1,47,29.86,10.0,NW,6.9,-,N/A,,Clear,310,2014-01-26 06:55:00
2:15 AM,25.5,8.1,48,29.86,10.0,West,5.8,-,N/A,,Clear,280,2014-01-26 07:15:00
2:35 AM,23.9,8.4,52,29.87,10.0,WNW,6.9,-,N/A,,Clear,290,2014-01-26 07:35:00
2:55 AM,23.7,8.1,51,29.87,10.0,West,8.1,-,N/A,,Clear,280,2014-01-26 07:55:00
3:15 AM,23.5,7.7,51,29.87,10.0,NW,6.9,-,N/A,,Clear,320,2014-01-26 08:15:00
3:35 AM,22.1,6.6,51,29.88,10.0,WNW,5.8,-,N/A,,Clear,290,2014-01-26 08:35:00
3:55 AM,22.1,4.6,47,29.86,10.0,West,4.6,-,N/A,,Clear,270,2014-01-26 08:55:00
4:15 AM,21.7,3.2,45,29.86,10.0,NW,4.6,-,N/A,,Clear,320,2014-01-26 09:15:00
4:35 AM,20.3,3.6,48,29.86,10.0,NW,6.9,-,N/A,,Clear,310,2014-01-26 09:35:00
4:55 AM,20.3,2.8,47,29.86,10.0,WNW,4.6,-,N/A,,Clear,290,2014-01-26 09:55:00
5:15 AM,20.1,2.3,46,29.85,10.0,West,5.8,-,N/A,,Clear,270,2014-01-26 10:15:00
5:35 AM,19.4,2.5,48,29.85,10.0,West,3.5,-,N/A,,Clear,270,2014-01-26 10:35:00
5:55 AM,17.4,2.7,52,29.85,10.0,West,5.8,-,N/A,,Clear,260,2014-01-26 10:55:00
6:15 AM,17.8,3.0,53,29.86,10.0,Calm,Calm,-,N/A,,Clear,0,2014-01-26 11:15:00
6:35 AM,18.0,3.4,53,29.87,10.0,West,3.5,-,N/A,,Clear,270,2014-01-26 11:35:00
6:55 AM,16.0,3.6,58,29.86,10.0,SW,3.5,-,N/A,,Clear,220,2014-01-26 11:55:00
7:15 AM,14.2,4.1,64,29.86,10.0,Calm,Calm,-,N/A,,Scattered Clouds,0,2014-01-26 12:15:00
7:35 AM,16.2,4.6,61,29.86,10.0,Calm,Calm,-,N/A,,Clear,0,2014-01-26 12:35:00
7:55 AM,14.0,5.0,67,29.87,10.0,Calm,Calm,-,N/A,,Clear,0,2014-01-26 12:55:00
8:15 AM,15.1,5.9,67,29.87,10.0,West,3.5,-,N/A,,Clear,260,2014-01-26 13:15:00
8:35 AM,18.5,6.6,60,29.87,10.0,WNW,3.5,-,N/A,,Clear,290,2014-01-26 13:35:00
8:55 AM,21.9,9.0,58,29.85,10.0,West,3.5,-,N/A,,Clear,270,2014-01-26 13:55:00
9:15 AM,24.8,10.2,54,29.85,10.0,West,4.6,-,N/A,,Clear,270,2014-01-26 14:15:00
9:35 AM,26.6,11.3,53,29.85,10.0,West,4.6,-,N/A,,Scattered Clouds,270,2014-01-26 14:35:00
9:55 AM,27.7,12.0,52,29.85,10.0,West,8.1,-,N/A,,Scattered Clouds,270,2014-01-26 14:55:00
10:15 AM,29.7,13.8,52,29.84,10.0,West,10.4,-,N/A,,Mostly Cloudy,270,2014-01-26 15:15:00
10:35 AM,30.7,14.0,50,29.84,10.0,West,10.4,-,N/A,,Overcast,280,2014-01-26 15:35:00
10:55 AM,32.0,14.5,49,29.85,10.0,West,9.2,-,N/A,,Overcast,280,2014-01-26 15:55:00
11:15 AM,33.6,15.3,47,29.85,10.0,West,5.8,-,N/A,,Mostly Cloudy,280,2014-01-26 16:15:00
11:35 AM,36.1,16.3,45,29.85,10.0,West,8.1,-,N/A,,Clear,260,2014-01-26 16:35:00
11:55 AM,36.5,15.8,43,29.84,10.0,West,12.7,-,N/A,,Clear,260,2014-01-26 16:55:00
12:15 PM,37.9,18.5,46,29.83,10.0,West,10.4,17.3,N/A,,Scattered Clouds,270,2014-01-26 17:15:00
12:35 PM,39.7,19.9,45,29.82,10.0,West,13.8,20.7,N/A,,Clear,270,2014-01-26 17:35:00
12:55 PM,41.2,23.0,48,29.80,10.0,West,15.0,21.9,N/A,,Clear,260,2014-01-26 17:55:00
1:15 PM,41.9,24.3,50,29.80,10.0,West,10.4,18.4,N/A,,Clear,270,2014-01-26 18:15:00
1:35 PM,42.8,25.3,50,29.78,10.0,West,12.7,20.7,N/A,,Clear,270,2014-01-26 18:35:00
1:55 PM,44.1,27.1,51,29.78,10.0,West,10.4,23.0,N/A,,Clear,270,2014-01-26 18:55:00
2:15 PM,45.9,30.2,54,29.77,10.0,West,18.4,23.0,N/A,,Clear,280,2014-01-26 19:15:00
2:35 PM,46.4,29.5,52,29.76,10.0,West,17.3,24.2,N/A,,Clear,270,2014-01-26 19:35:00
2:55 PM,46.8,29.7,51,29.76,10.0,West,12.7,20.7,N/A,,Scattered Clouds,260,2014-01-26 19:55:00
3:15 PM,48.0,29.8,49,29.75,10.0,West,11.5,16.1,N/A,,Scattered Clouds,280,2014-01-26 20:15:00
3:35 PM,48.2,30.2,50,29.74,10.0,West,15.0,20.7,N/A,,Clear,270,2014-01-26 20:35:00
3:55 PM,48.2,30.4,50,29.73,10.0,West,13.8,21.9,N/A,,Clear,260,2014-01-26 20:55:00
4:15 PM,48.4,30.9,51,29.73,10.0,West,13.8,23.0,N/A,,Clear,270,2014-01-26 21:15:00
4:35 PM,49.1,31.3,50,29.73,10.0,West,10.4,20.7,N/A,,Clear,270,2014-01-26 21:35:00
4:55 PM,49.3,31.3,50,29.74,10.0,West,10.4,17.3,N/A,,Clear,270,2014-01-26 21:55:00
5:15 PM,48.9,31.1,50,29.74,10.0,West,6.9,-,N/A,,Clear,270,2014-01-26 22:15:00
5:35 PM,48.0,30.9,52,29.74,10.0,West,11.5,16.1,N/A,,Clear,270,2014-01-26 22:35:00
5:55 PM,47.1,30.6,53,29.75,10.0,West,6.9,-,N/A,,Clear,270,2014-01-26 22:55:00
6:15 PM,46.0,30.4,54,29.75,10.0,West,6.9,-,N/A,,Clear,270,2014-01-26 23:15:00
6:35 PM,46.4,30.7,54,29.75,10.0,West,13.8,19.6,N/A,,Mostly Cloudy,270,2014-01-26 23:35:00
6:55 PM,46.4,30.9,55,29.76,10.0,West,12.7,17.3,N/A,,Mostly Cloudy,260,2014-01-26 23:55:00
7:15 PM,45.5,30.7,56,29.76,10.0,West,11.5,-,N/A,,Clear,260,2014-01-27 00:15:00
7:35 PM,44.6,30.6,58,29.76,10.0,West,10.4,-,N/A,,Clear,260,2014-01-27 00:35:00
7:55 PM,44.6,30.4,57,29.77,10.0,West,9.2,-,N/A,,Clear,270,2014-01-27 00:55:00
8:15 PM,44.6,30.4,57,29.76,10.0,West,10.4,-,N/A,,Clear,270,2014-01-27 01:15:00
8:35 PM,43.7,30.2,59,29.77,10.0,West,9.2,-,N/A,,Scattered Clouds,270,2014-01-27 01:35:00
8:55 PM,43.9,30.2,59,29.77,10.0,West,8.1,-,N/A,,Scattered Clouds,270,2014-01-27 01:55:00
9:15 PM,43.7,30.2,59,29.77,10.0,West,8.1,-,N/A,,Mostly Cloudy,270,2014-01-27 02:15:00
9:35 PM,44.6,30.4,57,29.77,10.0,West,6.9,-,N/A,,Overcast,280,2014-01-27 02:35:00
9:55 PM,44.2,30.2,58,29.77,10.0,West,5.8,-,N/A,,Overcast,270,2014-01-27 02:55:00
10:15 PM,43.2,30.2,60,29.78,10.0,West,4.6,-,N/A,,Overcast,260,2014-01-27 03:15:00
10:35 PM,41.9,29.8,62,29.77,10.0,West,5.8,-,N/A,,Overcast,260,2014-01-27 03:35:00
10:55 PM,41.4,29.8,64,29.78,10.0,West,5.8,-,N/A,,Overcast,260,2014-01-27 03:55:00
11:15 PM,41.4,29.8,64,29.78,10.0,West,6.9,-,N/A,,Mostly Cloudy,270,2014-01-27 04:15:00
11:35 PM,40.8,29.8,65,29.78,10.0,West,8.1,-,N/A,,Scattered Clouds,260,2014-01-27 04:35:00
11:55 PM,41.0,29.8,64,29.78,10.0,West,5.8,-,N/A,,Scattered Clouds,270,2014-01-27 04:55:00